パンスターズ彗星

P/2013 J4 ( PanSTARRS )

English version
Home page
Updated on February 2, 2014

---------------------------------------------------------------------

・ プロフィール

発見日 2013年5月5日
発見光度 21.0等
発見者 Pan-STARRS 1 telescope (Haleakala)

・ 写真集

・ 軌道要素

T 2013 Nov. 4.21995 TT                                  MPC
q   1.9033675            (2000.0)            P               Q
n   0.25311329     Peri.  118.77062     -0.91868994     +0.38521407
a   2.4751000      Node    84.00114     -0.38604805     -0.82898678
e   0.2309937      Incl.    5.03515     -0.08352060     -0.40545165
P   3.89
From 50 observations 2013 May 5-12.

・ 光度変化

        m1 = 15.0 + 5 logΔ + 10.0 log r

---------------------------------------------------------------------

軌道要素はM.P.E.C. 2014-B85に掲載されたものです。
光度グラフはComet for Windowsで作成したものです。

---------------------------------------------------------------------

Copyright(C) Seiichi Yoshida (comet@aerith.net). All rights reserved.